Showing default

NINGXIA-1 9, 49021

Orbit data source: Space-Track

NINGXIA-1 9, 49021 is a Chinese payload satellite in LEO that was launched on Fri, 09 Jul 2021 UTC via a CHANG ZHENG 6 launch vehicle from the Taiyaun Space Center, China (TSC). Payload-class satellites include a variety of spacecraft equipped with specific instruments for various scientific and technological missions. These include communications satellites like Starlink; space stations such as the ISS; scientific satellites like the Hubble; Earth observation satellites from companies like Planet Labs, Umbra, and HawkEye 360; GPS; miniature CubeSats for education and research; and military/defense satellites.

Loading next visibility...
Identifier
49021, 2021-064D
Orbit
LEO
Country
Flag of CNCN / PRC
Related business
Manufacturer
DFH
Mission
Operational Commercial Sigint
Bus & Motor
NX-1, Unknown motor
Mass
~100 kg wet, ~100 kg dry
Launch date (UTC)
2021-07-09 (5 years ago)
Launch vehicle
CHANG ZHENG 6
Launch site
Taiyaun Space Center, China (TSC)
Object type
Payload
Rocket body
Debris
Shape & HBR
Box + 2 Pan, 0.5 m
Radar Cross Section
0.166 m², Medium (>0.1 m² and < 1m²)

Expand to show TLE details & history
Last TLE update: 14 hours ago

TLE from 14 hours ago
0 NINGXIA-1 9
1 49021U 21064D   26171.49405398 -.00000268  00000-0 -78714-4 0  9997
2 49021  45.0008 212.0507 0009945 269.6132  90.3565 14.08558877254695
Epoch: 2026-06-20T11:51Z
TLE epoch observation values (Epoch: 2026-06-20T11:51:26.263Z)
Latitude
-0.00003°
Longitude
125.48336°
Altitude
864.358 km
Speed
7.422 km/s
True Right ascension
14h 08m 12s
True Declination
0° 00' 00"
Sunlit
Object was in full shadow at epoch
Visualization orbit readout
Latitude
Unknown
Longitude
Unknown
Altitude
Unknown
Speed
Unknown
Apparent Right ascension
Unknown
Apparent Declination
Unknown
Sunlit
N/A
Visualization observer readout
Local Sidereal Time
12:32:52
Azimuth
Unknown
Elevation
Unknown
Doppler factor
Unknown
Orbital elements
Apogee altitude
873.036 km
Perigee altitude
858.628 km
Semi-major axis
7,243.969 km
Eccentricity
0.00099
Inclination
45.0008°
RAAN
212.0507°
Arg. of periapsis
269.6132°
True anomaly
90.47046°
Mean anomaly
90.3565°
Eccentric anomaly
90.41348°
Mean motion
3.52029 °/min
Orbital period
102.26 mins
BSTAR
-0.000078714
Loading maneuver chart data...
Computing Atmospheric mass density...
Loading historical data...
Loading historical data...
Loading historical data...
Loading historical data...
Loading historical data...
Loading historical data...
Loading historical data...
Other satellites on launch #64 in the year 2021 (2021-07-09 UTC)

Documentation

Showing up to 5 results
|